Regional Weather Roundup
Issued by NWS Newport/Morehead, NC

Current Version | Previous Version | Graphics & Text | Print | Product List | Glossary On
Versions: 1 2 3 4 5 6 7 8 9 10 11 12 13 14 15 16 17 18 19 20 21 22 23 24 25 26 27 28 29 30 31 32 33 34 35 36 37 38 39 40 41 42 43 44 45 46 47 48 49 50
000 ASUS42 KMHX 252110 RWRMHX WEATHER ROUNDUP FOR EASTERN NORTH CAROLINA NATIONAL WEATHER SERVICE NEWPORT/MOREHEAD CITY NC 400 PM EST SUN JAN 25 2015 NOTE: "FAIR" INDICATES FEW OR NO CLOUDS BELOW 12,000 FEET WITH NO SIGNIFICANT WEATHER AND/OR OBSTRUCTIONS TO VISIBILITY NCZ015>017-031-032-045>047-102-103-252200- NORTH COAST CITY SKY/WX TMP DP RH WIND PRES REMARKS EDENTON SUNNY 52 33 48 S5 29.89S ELIZABETH CITY SUNNY 50 32 50 S8 29.90R KITTY HAWK CLEAR 47 32 55 SE5 29.90S MANTEO SUNNY 46 30 53 S10 29.92S $$ NCZ045>047-081-094-103-104-252200- CENTRAL COAST CITY SKY/WX TMP DP RH WIND PRES REMARKS FRISCO SUNNY 49 32 52 CALM 29.93S SWANQUARTER NOT AVBL $$ NCZ095-097-098-100-101-252200- SOUTHERN COAST CITY SKY/WX TMP DP RH WIND PRES REMARKS BEAUFORT SUNNY 49 37 63 S7 29.91S CEDAR ISLAND NOT AVBL JACKSONVILLE SUNNY 51 36 56 S10 29.89F PINEY ISLAND N/A N/A N/A N/A MISG 29.90 WILMINGTON SUNNY 52 35 52 S9 29.91R $$ NCZ011>013-027>030-043-044-078>080-089-090>093-098-252200- COASTAL PLAIN CITY SKY/WX TMP DP RH WIND PRES REMARKS AHOSKIE SUNNY 51 33 50 S3 29.88S CLINTON SUNNY 56 36 46 SE5 29.87F ELIZABETHTOWN SUNNY 56 35 45 S7 29.88F GOLDSBORO SUNNY 55 38 53 SE6 29.85F GREENVILLE SUNNY 54 32 43 SW3 29.90F HAVELOCK SUNNY 52 35 52 S7 29.91S KENANSVILLE SUNNY 55 32 41 E5 29.89S KINSTON SUNNY 54 34 47 SW3 29.89F NEW BERN SUNNY 55 33 43 E6 29.90S RICHLANDS SUNNY 54 32 43 CALM 29.90S ROCKY MOUNT SUNNY 54 33 45 S6 29.86F WASHINGTON SUNNY 52 33 47 SW6 29.89S WHITEVILLE SUNNY 56 34 43 S9 29.88F $$ AMZ130-135-150-152-154-156-158-170-250-252-270-ANZ085-086-088-633-658-670-252200- MARINE OBSERVATIONS STATION/POSITION TIME TEMP WIND PRES WAVE SWELL AIR SEA DIR/SP/G HT/PER HT/PER (UTC) (F) (DEG/KT/KT) (MB) (FT/S) (FT/S) CHESAPEAKE LIGHT 2000 45 170/ 12/ 13 1012.2 64 E VA BEACH 2100 46 53 230/ 8/ 10 1012.4 4/10 3/10 DUCK 2100 46 44 150/ 10/ 11 1011.8 2 E DUCK 2100 44 N/A 2/11 2/11 10 NE DUCK 2100 45 N/A 3/ 8 2/11 OREGON INLET 2100 47 46 170/ 9/ 11 1013.2 13E OREGON INLT 2100 46 N/A 4/10 2/11 HATTERAS CG 2100 49 53 190/ 3/ 5 1013.6 DIAMOND BUOY 2100 51 69 160/ 2/ 4 1013.2 4/10 3/10 17 S OCRACOKE NOT AVBL CAPE LOOKOUT 2000 48 180/ 7/ 8 1012.9 BEAUFORT LAB 2100 49 50 200/ 7/ 8 1011.7 27 SE WRIGHTSVLE NOT AVBL 5 SE WRIGHTSVLE 2000 49 52 150/ 8/ 8 1012.8 225 S CAPE HAT 2029 65 72 260/ 8/ 12 1014.0 6/ 8 7/ 8 41 SE CHARLESTON 2100 56 69 190/ 10/ 14 1012.6 2/ 6 2/ 6 $$

USA.gov is the U.S. government's official web portal to all federal, state and local government web resources and services.